Location: Sternwarte_Laufen
(47.9344°N, 12.9346°E)
Time: 16:43:01
(UTC+02:00)

ISS - Pass Details

Date: 14 May 2026
Orbit: 414 x 424 km, 51.6° (Epoch: 21 May)

Event Time Altitude Azimuth Distance (km) Brightness Sun altitude
Rises 22:32:38 0° 279° (W) 2,351 0.8 -15.1°
Reaches altitude 10° 22:34:48 10° 287° (WNW) 1,489 -0.2 -15.3°
Maximum altitude 22:38:00 42° 360° (N) 610 -2.5 -15.6°
Drops below altitude 10° 22:41:12 10° 73° (ENE) 1,492 -1.1 -16.0°
Enters shadow 22:41:23 - 74° (ENE) 1,561 -1.1 -16.0°
